Satellite-Ground Cal/Val Site Overpasses Predictions

Prediction of Satellite NPP Overpassing Cal/Val Site: Antarctic Dome C

Ground Cal/Val Site Location: Latitude: -75.10, Longitude: 123.35; Satellite-Ground Site NADIR distance within 100 km.

Table of predicted overpasses for the next 14.0 days since TLE Epoch: 7/18/2020
Interval Starting Time Ending Time Minimum Distance Time Minimum Distance (km)
1 07/18/2020 07:37:29 07/18/2020 07:37:57 07/18/2020 07:37:43 33.57
2 07/19/2020 07:18:44 07/19/2020 07:19:02 07/19/2020 07:18:53 76.52
3 07/21/2020 15:00:59 07/21/2020 15:01:23 07/21/2020 15:01:11 57.95
4 07/22/2020 14:42:10 07/22/2020 14:42:35 07/22/2020 14:42:23 51.09
5 07/23/2020 07:43:52 07/23/2020 07:44:13 07/23/2020 07:44:02 68.98
6 07/24/2020 07:25:00 07/24/2020 07:25:26 07/24/2020 07:25:13 38.95
7 07/26/2020 15:07:27 07/26/2020 15:07:35 07/26/2020 15:07:31 95.86
8 07/27/2020 14:48:28 07/27/2020 14:48:57 07/27/2020 14:48:42 15.39
